Location: Concepci�n
(32.5333°N, 117.1167°W)
Time: 20:05:14
(UTC+00:00)

Cosmos 407 Rocket - Pass Details

Date: 08 May 2021
Orbit: 743 x 787 km, 74.0° (Epoch: 18 June)

Event Time Altitude Azimuth Distance (km) Brightness Sun altitude
Rises 12:07:00 0° 332° (NNW) 3,276 6.8 -10.1°
Reaches altitude 10° 12:09:33 10° 324° (NW) 2,347 5.9 -9.6°
Maximum altitude 12:14:23 36° 260° (W) 1,231 4.1 -8.7°
Drops below altitude 10° 12:19:12 10° 195° (SSW) 2,336 5.6 -7.8°
Sets 12:21:45 0° 186° (S) 3,258 6.4 -7.3°
